Location: Unspecified
(42.3650°N, 71.1030°W)
Time: 15:48:48
(UTC+00:00)

Transit 4A - Pass Details

Date: 02 July 2024
Orbit: 870 x 973 km, 66.8° (Epoch: 17 July)

Event Time Altitude Azimuth Distance (km) Brightness Sun altitude
Rises 02:55:28 0° 268° (W) 3,455 11.2 -19.6°
Reaches altitude 10° 02:59:10 10° 291° (WNW) 2,519 10.8 -19.9°
Maximum altitude 03:02:21 15° 325° (NW) 2,194 10.9 -20.2°
Drops below altitude 10° 03:05:34 10° 359° (N) 2,533 11.1 -20.4°
Sets 03:09:19 0° 22° (NNE) 3,487 11.5 -20.7°
